Location: Newark
(42.8481°N, 0.4872°E)
Time: 23:33:22
(UTC+00:00)

Transit 2A - Pass Details

Date: 30 October 2020
Orbit: 595 x 963 km, 66.7° (Epoch: 03 December)

Event Time Altitude Azimuth Distance (km) Brightness Sun altitude
Rises 07:27:40 0° 336° (NNW) 3,499 8.9 8.8°
Reaches altitude 10° 07:31:16 10° 357° (N) 2,485 8.4 9.4°
Maximum altitude 07:34:48 16° 35° (NE) 1,985 8.3 10.0°
Drops below altitude 10° 07:38:09 10° 74° (ENE) 2,321 9.3 10.5°
Sets 07:41:20 0° 95° (E) 3,164 10.5 11.0°
